Regional Weather Roundup
Issued by NWS

Home | Current Version | Previous Version | Graphics & Text | Print | Product List | Glossary On
Versions: 1 2 3 4 5 6 7 8 9 10 11 12 13 14 15 16 17 18 19 20 21 22 23 24 25 26 27 28 29 30 31 32 33 34 35 36 37 38 39 40 41 42 43 44 45 46 47 48 49 50
000
ASUS43 KMKX 250359
RWRWI

WISCONSIN REGIONAL WEATHER ROUNDUP
NATIONAL WEATHER SERVICE MILWAUKEE/SULLIVAN WI
1000 PM CST SAT FEB 24 2018

NOTE: "FAIR" INDICATES FEW OR NO CLOUDS BELOW 12,000 FEET WITH NO
SIGNIFICANT WEATHER AND/OR OBSTRUCTIONS TO VISIBILITY.

WIZ001-002-006>008-014>016-023>028-250500-
NORTHWEST WISCONSIN

CITY           SKY/WX    TMP DP  RH WIND       PRES   REMARKS
SUPERIOR ARPT  LGT SNOW  26  25  96 E10       29.55F VSB 1   WCI  16
ASHLAND        SNOW      27  25  92 NE8       29.55F VSB 1/2 WCI  19
HAYWARD        SNOW      29  28  96 E5        29.49F VSB 1/2 WCI  24
SIREN          LGT SNOW  29  29  98 E5        29.50F VSB 3/4 WCI  24
CUMBERLAND     SNOW      28  28 100 E5        29.49F VSB 1/2 WCI  23
RICE LAKE      SNOW      30  29  99 E3        29.51F VSB 1/2
CHETEK         SNOW      30  30  99 CALM      29.50F VSB 1/2
LADYSMITH      LGT SNOW  31  29  95 SE7       29.51F VSB 1   WCI  24
EAU CLAIRE     SNOW      31  30  96 CALM      29.48F VSB 1/2
MENOMONIE      LGT SNOW  31  31  99 E3        29.49F
NEW RICHMOND   LGT SNOW  29  28  94 E3        29.48F
OSCEOLA        LGT SNOW  30  30 100 E6        29.50F WCI  24
$$

WIZ003>005-009-010-017-018-250500-
NORTH CENTRAL WISCONSIN

CITY           SKY/WX    TMP DP  RH WIND       PRES   REMARKS
MANITOWISH WTR LGT SNOW  27  27 100 SE10G21   29.48F VSB 1   WCI  17
ARBOR VITAE    LGT SNOW  29  27  92 SE14G25   29.47F WCI  19
WOODRUFF       LGT SNOW  29  27  92 SE14G25   29.47F WCI  19
RHINELANDER    MIX PCPN  29  26  89 SE22G31   29.47F WCI  15
EAGLE RIVER    LGT SNOW  28  25  89 SE12G23   29.48F WCI  17
LAND O LAKES   LGT SNOW  28  24  82 E14G25    29.52F VSB 1   WCI  17
PHILLIPS       LGT SNOW  28  28  99 SE7       29.47F WCI  21
TOMAHAWK       LGT RAIN  29  26  90 SE12G20   29.49F WCI  19
MEDFORD        LGT SNOW  28  27  95 SE12      29.49F VSB 1   WCI  18
MERRILL        LGT SNOW  30  29  94 SE13G22   29.49F VSB 3/4 WCI  20
$$

WIZ029-030-035-036-043>047-250500-
CENTRAL WISCONSIN

CITY           SKY/WX    TMP DP  RH WIND       PRES   REMARKS
WAUSAU         LGT SNOW  31  29  92 SE17      29.47F FOG     WCI  19
MOSINEE        FRZ RAIN  32  30  93 SE15G22   29.49F WCI  22
MARSHFIELD     LGT SNOW  32  30  92 SE15      29.47F FOG     WCI  22
STEVENS POINT  MIX PCPN  31  31 100 E8        29.51F WCI  23
WAUPACA        RAIN      35  32  90 E12       29.54F WCI  26
WAUTOMA        LGT SNOW  33  32  96 E6        29.50F FOG     WCI  28
WISC RAPIDS    LGT SNOW  33  30  88 SE10      29.48F FOG     WCI  25
CAMP DOUGLAS   LGT SNOW  33  33  99 CALM      29.49F FOG
$$

WIZ011>013-019>022-031-037>040-048>050-250500-
NORTHEAST WISCONSIN

CITY           SKY/WX    TMP DP  RH WIND       PRES   REMARKS
ANTIGO         MIX PCPN  28  28  96 E30G37    29.50F WCI  13
SHAWANO        LGT RAIN  34  32  91 E10G17    29.56F WCI  26
OCONTO         CLOUDY    32  31  95 SE10      29.63F WCI  24
STURGEON BAY   MIX PCPN  32  30  92 SE15G23   29.62F WCI  22
GREEN BAY      HVY RAIN  34  30  85 E14G24    29.56F FOG     WCI  25
MANITOWOC      LGT RAIN  33  33 100 SE16      29.59F FOG     WCI  23
APPLETON       LGT RAIN  34  32  93 E17G26    29.52F WCI  23
CLINTONVILLE   MIX PCPN  33  32  94 E12       29.53F WCI  24
OSHKOSH        CLOUDY    35  33  92 SE21G26   29.50F WCI  24
$$

WIZ032>034-041-042-053>061-250500-
SOUTHWEST WISCONSIN

CITY           SKY/WX    TMP DP  RH WIND       PRES   REMARKS
LA CROSSE      LGT SNOW  33  32  96 SW3       29.49F FOG
SPARTA         LGT SNOW  32  32 100 CALM      29.52F
VIROQUA        CLOUDY    33  33 100 S3        29.49F VSB 1
BOSCOBEL       LGT RAIN  36  35  96 S3        29.52F FOG
PRAIRIE DU CHI LGT RAIN  34  33  96 S6        29.54S WCI  29
PLATTEVILLE    CLOUDY    36  36 100 SW7       29.52F WCI  30
$$

WIZ056-057-062-063-064-067-068-250500-
SOUTH CENTRAL WISCONSIN

CITY           SKY/WX    TMP DP  RH WIND       PRES   REMARKS
REEDSBURG      RAIN      35  35 100 SW6       29.49S WCI  30
BARABOO/DELLS  HVY RAIN  36  34  95 E9G17     29.46F WCI  29
LONE ROCK      LGT RAIN  36  36 100 NW3       29.51S VSB 1
MINERAL POINT  RAIN      37  37 100 S9        29.50R WCI  31
MADISON        RAIN      37  36  96 SE14      29.47F FOG     WCI  28
MIDDLETON      CLOUDY    38  38 100 SE8G16    29.48F WCI  32
WATERTOWN      LGT RAIN  37  37 100 SE16G24   29.49F WCI  28
MONROE         DRZL/FOG  37  36  93 SE7       29.47F VSB 1/2 WCI  32
JANESVILLE     LGT RAIN  37  37 100 E10       29.49F WCI  30
$$

WIZ051-052-058>065-066-070>072-250500-
SOUTHEAST WISCONSIN

CITY           SKY/WX    TMP DP  RH WIND       PRES   REMARKS
MILWAUKEE      LGT RAIN  38  36  92 SE16      29.55F FOG     WCI  29
WAUKESHA       RAIN      34  34 100 E15       29.56F WCI  24
MILWAUKEE/TIMM RAIN      36  32  87 E12       29.58F WCI  27
RACINE         LGT RAIN  37  37 100 SE13      29.56F FOG     WCI  29
BURLINGTON     MIX PCPN  37  37  97 E9        29.53F WCI  31
KENOSHA        LGT RAIN  39  36  89 SE18G28   29.52F FOG     WCI  30
FOND DU LAC    LGT RAIN  36  32  85 SE23G36   29.48F WCI  24
SHEBOYGAN      LGT RAIN  35  35 100 SE16G28   29.57F FOG     WCI  25
WEST BEND      LGT RAIN  34  34 100 E15G23    29.56F WCI  24
JUNEAU         RAIN      36  35  96 E20G29    29.51F WCI  25
$$

LSZ147-162-250500-
LAKE SUPERIOR

STATION/POSITION TIME  TEMP    WIND        PRES    WAVE
                       AIR SEA DIR/SP/G            HT/PER
                 (UTC) (F)     (DEG/KT/KT) (MB)    (FT/S)
DEVILS ISLAND    0300   28      70/ 26/ 31 1003.1F
SAXON HARBOR     0330   29      30/  4/  6 1000.7F
$$

LMZ867-665-643>646-250500-
LAKE MICHIGAN

STATION/POSITION TIME  TEMP    WIND        PRES    WAVE
                       AIR SEA DIR/SP/G            HT/PER
                 (UTC) (F)     (DEG/KT/KT) (MB)    (FT/S)
NORTHPORT PIER   0340   33                 1004.4F
KEWAUNEE LAKESHO 0330   34     120/ 17/ 23 1003.9F
SHEBOYGAN LAKESH 0300   35     110/ 15/ 17 1004.8F
PORT WASHINGTON  0330   36     100/  9/ 11 1004.1F
KENOSHA   LAKESH 0300   37     140/ 10/ 12 1003.0
$$

TC  - TEMPERATURE IN CELSIUS
VSB - VISIBILITY IN STATUTE MILES
WCI - WIND CHILL INDEX
HX  - HEAT INDEX




USA.gov is the U.S. government's official web portal to all federal, state and local government web resources and services.